Powrót do katalogu

SHIYAN 30-03

AktywnyMilitariaVLEO
NORAD 68139·PAYLOAD·🇨🇳 China

Wystrzelony Mar 12, 2026 z Xichang Satellite Launch Center

Loading…

Następne Przeloty (najbliższe 24 godziny)

TLE

ŚwieżeSource: Space-Track

Epoka: Sep 14, 2026, 18:27 UTC

1 68139U 26048A   26257.76883440  .00001378  00000-0  13614-3 0  9996
2 68139  34.9995  91.0501 0004044  21.9767 338.1111 14.91969543 27758

Śledź SHIYAN 30-03 w czasie rzeczywistym z AllMySat

Download on the App Store